"Time","Value","Approval","myLocation"
"2023-05-06 00:00",37.3800234618147,"Working","OW391"
"2023-05-06 01:00",37.3860242997367,"Working","OW391"
"2023-05-06 02:00",37.3890251376586,"Working","OW391"
"2023-05-06 03:00",37.3940259755806,"Working","OW391"
"2023-05-06 04:00",37.3980268135025,"Working","OW391"
"2023-05-06 05:00",37.4000276514245,"Working","OW391"
"2023-05-06 06:00",37.3980284893464,"Working","OW391"
"2023-05-06 07:00",37.3990293272684,"Working","OW391"
"2023-05-06 08:00",37.3970301651903,"Working","OW391"
"2023-05-06 09:00",37.3980310031123,"Working","OW391"
"2023-05-06 10:00",37.3950318410342,"Working","OW391"
"2023-05-06 11:00",37.3940326789562,"Working","OW391"
"2023-05-06 12:00",37.3940335168781,"Working","OW391"
"2023-05-06 13:00",37.3910343548001,"Working","OW391"
"2023-05-06 14:00",37.3920351927221,"Working","OW391"
"2023-05-06 15:00",37.392036030644,"Working","OW391"
"2023-05-06 16:00",37.393036868566,"Working","OW391"
"2023-05-06 17:00",37.3910377064879,"Working","OW391"
"2023-05-06 18:00",37.3910385444099,"Working","OW391"
"2023-05-06 19:00",37.3880393823318,"Working","OW391"
"2023-05-06 20:00",37.3870402202538,"Working","OW391"
"2023-05-06 21:00",37.3850410581757,"Working","OW391"
"2023-05-06 22:00",37.3860418960977,"Working","OW391"
"2023-05-06 23:00",37.3860427340196,"Working","OW391"
"2023-05-07 00:00",37.3880435719416,"Working","OW391"
"2023-05-07 01:00",37.3870444098635,"Working","OW391"
"2023-05-07 02:00",37.3890452477855,"Working","OW391"
"2023-05-07 03:00",37.3900460857074,"Working","OW391"
"2023-05-07 04:00",37.3910469236294,"Working","OW391"
"2023-05-07 05:00",37.3900477615514,"Working","OW391"
"2023-05-07 06:00",37.3900485994733,"Working","OW391"
"2023-05-07 07:00",37.3910494373953,"Working","OW391"
"2023-05-07 08:00",37.3910502753172,"Working","OW391"
"2023-05-07 09:00",37.3900511132392,"Working","OW391"
"2023-05-07 10:00",37.3920519511611,"Working","OW391"
"2023-05-07 11:00",37.3910527890831,"Working","OW391"
"2023-05-07 12:00",37.391053627005,"Working","OW391"
"2023-05-07 13:00",37.391054464927,"Working","OW391"
"2023-05-07 14:00",37.3930553028489,"Working","OW391"
"2023-05-07 15:00",37.3960561407709,"Working","OW391"
"2023-05-07 16:00",37.3960569786928,"Working","OW391"
"2023-05-07 17:00",37.3950578166148,"Working","OW391"
"2023-05-07 18:00",37.3950586545368,"Working","OW391"
"2023-05-07 19:00",37.3920594924587,"Working","OW391"
"2023-05-07 20:00",37.3900603303807,"Working","OW391"
"2023-05-07 21:00",37.3890611683026,"Working","OW391"
"2023-05-07 22:00",37.3890620062246,"Working","OW391"
"2023-05-07 23:00",37.3880628441465,"Working","OW391"
"2023-05-08 00:00",37.3880636820685,"Working","OW391"
"2023-05-08 01:00",37.3860645199904,"Working","OW391"
"2023-05-08 02:00",37.3810653579124,"Working","OW391"
"2023-05-08 03:00",37.3800661958343,"Working","OW391"
"2023-05-08 04:00",37.3800670337563,"Working","OW391"
"2023-05-08 05:00",37.3820678716782,"Working","OW391"
"2023-05-08 06:00",37.3810687096002,"Working","OW391"
"2023-05-08 07:00",37.3810695475221,"Working","OW391"
"2023-05-08 08:00",37.3790703854441,"Working","OW391"
"2023-05-08 09:00",37.3770712233661,"Working","OW391"
"2023-05-08 10:00",37.376072061288,"Working","OW391"
"2023-05-08 11:00",37.37507289921,"Working","OW391"
"2023-05-08 12:00",37.3730737371319,"Working","OW391"
"2023-05-08 13:00",37.3730745750539,"Working","OW391"
"2023-05-08 14:00",37.3730754129758,"Working","OW391"
"2023-05-08 15:00",37.3730762508978,"Working","OW391"
"2023-05-08 16:00",37.3700770888197,"Working","OW391"
"2023-05-08 17:00",37.3680779267417,"Working","OW391"
"2023-05-08 18:00",37.3650787646636,"Working","OW391"
"2023-05-08 19:00",37.3620796025856,"Working","OW391"
"2023-05-08 20:00",37.3590804405075,"Working","OW391"
"2023-05-08 21:00",37.3550812784295,"Working","OW391"
"2023-05-08 22:00",37.3530821163515,"Working","OW391"
"2023-05-08 23:00",37.3510829542734,"Working","OW391"
"2023-05-09 00:00",37.3470837921954,"Working","OW391"
"2023-05-09 01:00",37.3490846301173,"Working","OW391"
"2023-05-09 02:00",37.3480854680393,"Working","OW391"
"2023-05-09 03:00",37.3500863059612,"Working","OW391"
"2023-05-09 04:00",37.3530871438832,"Working","OW391"
"2023-05-09 05:00",37.3560879818051,"Working","OW391"
"2023-05-09 06:00",37.3590888197271,"Working","OW391"
"2023-05-09 07:00",37.363089657649,"Working","OW391"
"2023-05-09 08:00",37.367090495571,"Working","OW391"
"2023-05-09 09:00",37.3710913334929,"Working","OW391"
"2023-05-09 10:00",37.3760921714149,"Working","OW391"
"2023-05-09 11:00",37.3800930093368,"Working","OW391"
"2023-05-09 12:00",37.3840938472588,"Working","OW391"
"2023-05-09 13:00",37.3880946851807,"Working","OW391"
"2023-05-09 14:00",37.3920955231027,"Working","OW391"
"2023-05-09 15:00",37.3970963610247,"Working","OW391"
"2023-05-09 16:00",37.3980971989466,"Working","OW391"
"2023-05-09 17:00",37.3970980368686,"Working","OW391"
"2023-05-09 18:00",37.3980988747905,"Working","OW391"
"2023-05-09 19:00",37.3990997127125,"Working","OW391"
"2023-05-09 20:00",37.3961005506344,"Working","OW391"
"2023-05-09 21:00",37.3931013885564,"Working","OW391"
"2023-05-09 22:00",37.3921022264783,"Working","OW391"
"2023-05-09 23:00",37.3881030644003,"Working","OW391"
"2023-05-10 00:00",37.3861039023222,"Working","OW391"
"2023-05-10 01:00",37.3841047402442,"Working","OW391"
"2023-05-10 02:00",37.3841055781661,"Working","OW391"
"2023-05-10 03:00",37.3841064160881,"Working","OW391"
"2023-05-10 04:00",37.3861072540101,"Working","OW391"
"2023-05-10 05:00",37.390108091932,"Working","OW391"
"2023-05-10 06:00",37.386108929854,"Working","OW391"
"2023-05-10 07:00",37.3851097677759,"Working","OW391"
"2023-05-10 08:00",37.3841106056979,"Working","OW391"
"2023-05-10 09:00",37.3831114436198,"Working","OW391"
"2023-05-10 10:00",37.3831122815418,"Working","OW391"
"2023-05-10 11:00",37.3821131194637,"Working","OW391"
"2023-05-10 12:00",37.3811139573857,"Working","OW391"
"2023-05-10 13:00",37.3771147953076,"Working","OW391"
"2023-05-10 14:00",37.3791156332296,"Working","OW391"
"2023-05-10 15:00",37.3791164711515,"Working","OW391"
"2023-05-10 16:00",37.3781173090735,"Working","OW391"
"2023-05-10 17:00",37.3741181469955,"Working","OW391"
"2023-05-10 18:00",37.3731189849174,"Working","OW391"
"2023-05-10 19:00",37.3711198228394,"Working","OW391"
"2023-05-10 20:00",37.3671206607613,"Working","OW391"
"2023-05-10 21:00",37.3621214986833,"Working","OW391"
"2023-05-10 22:00",37.3591223366052,"Working","OW391"
"2023-05-10 23:00",37.3541231745272,"Working","OW391"
"2023-05-11 00:00",37.3511240124491,"Working","OW391"
"2023-05-11 01:00",37.3491248503711,"Working","OW391"
"2023-05-11 02:00",37.347125688293,"Working","OW391"
"2023-05-11 03:00",37.351126526215,"Working","OW391"
"2023-05-11 04:00",37.3551273641369,"Working","OW391"
"2023-05-11 05:00",37.3611282020589,"Working","OW391"
"2023-05-11 06:00",37.3621290399809,"Working","OW391"
"2023-05-11 07:00",37.3641298779028,"Working","OW391"
"2023-05-11 08:00",37.3691307158248,"Working","OW391"
"2023-05-11 09:00",37.3731315537467,"Working","OW391"
"2023-05-11 10:00",37.3741323916687,"Working","OW391"
"2023-05-11 11:00",37.3801332295906,"Working","OW391"
"2023-05-11 12:00",37.3811340675126,"Working","OW391"
"2023-05-11 13:00",37.3851349054345,"Working","OW391"
"2023-05-11 14:00",37.3901357433565,"Working","OW391"
"2023-05-11 15:00",37.3951365812784,"Working","OW391"
"2023-05-11 16:00",37.3991374192004,"Working","OW391"
"2023-05-11 17:00",37.3991382571223,"Working","OW391"
"2023-05-11 18:00",37.4001390950443,"Working","OW391"
"2023-05-11 19:00",37.3991399329662,"Working","OW391"
"2023-05-11 20:00",37.3981407708882,"Working","OW391"
"2023-05-11 21:00",37.3971416088102,"Working","OW391"
"2023-05-11 22:00",37.3931424467321,"Working","OW391"
"2023-05-11 23:00",37.3891432846541,"Working","OW391"
"2023-05-12 00:00",37.386144122576,"Working","OW391"
"2023-05-12 01:00",37.386144960498,"Working","OW391"
"2023-05-12 02:00",37.3851457984199,"Working","OW391"
"2023-05-12 03:00",37.3851466363419,"Working","OW391"
"2023-05-12 04:00",37.3871474742638,"Working","OW391"
"2023-05-12 05:00",37.3911483121858,"Working","OW391"
"2023-05-12 06:00",37.3921491501077,"Working","OW391"
"2023-05-12 07:00",37.3931499880297,"Working","OW391"
"2023-05-12 08:00",37.3971508259516,"Working","OW391"
"2023-05-12 09:00",37.4001516638736,"Working","OW391"
"2023-05-12 10:00",37.4031525017955,"Working","OW391"
"2023-05-12 11:00",37.4041533397175,"Working","OW391"
"2023-05-12 12:00",37.4081541776395,"Working","OW391"
"2023-05-12 13:00",37.4101550155614,"Working","OW391"
"2023-05-12 14:00",37.4141558534834,"Working","OW391"
"2023-05-12 15:00",37.4191566914053,"Working","OW391"
"2023-05-12 16:00",37.4231575293273,"Working","OW391"
"2023-05-12 17:00",37.4241583672492,"Working","OW391"
"2023-05-12 18:00",37.4241592051712,"Working","OW391"
"2023-05-12 19:00",37.4221600430931,"Working","OW391"
"2023-05-12 20:00",37.4191608810151,"Working","OW391"
"2023-05-12 21:00",37.419161718937,"Working","OW391"
"2023-05-12 22:00",37.417162556859,"Working","OW391"
"2023-05-12 23:00",37.4121633947809,"Working","OW391"
"2023-05-13 00:00",37.4091642327029,"Working","OW391"
"2023-05-13 01:00",37.4051650706249,"Working","OW391"
"2023-05-13 02:00",37.4031659085468,"Working","OW391"
"2023-05-13 03:00",37.4021667464688,"Working","OW391"
"2023-05-13 04:00",37.4031675843907,"Working","OW391"
"2023-05-13 05:00",37.4051684223127,"Working","OW391"
"2023-05-13 06:00",37.4061692602346,"Working","OW391"
"2023-05-13 07:00",37.4111700981566,"Working","OW391"
"2023-05-13 08:00",37.4141709360785,"Working","OW391"
"2023-05-13 09:00",37.4171717740005,"Working","OW391"
"2023-05-13 10:00",37.4161726119224,"Working","OW391"
"2023-05-13 11:00",37.4171734498444,"Working","OW391"
"2023-05-13 12:00",37.4211742877663,"Working","OW391"
"2023-05-13 13:00",37.4231751256883,"Working","OW391"
"2023-05-13 14:00",37.4241759636102,"Working","OW391"
"2023-05-13 15:00",37.4251768015322,"Working","OW391"
"2023-05-13 16:00",37.4261776394542,"Working","OW391"
"2023-05-13 17:00",37.4251784773761,"Working","OW391"
"2023-05-13 18:00",37.4231793152981,"Working","OW391"
"2023-05-13 19:00",37.42118015322,"Working","OW391"
"2023-05-13 20:00",37.416180991142,"Working","OW391"
"2023-05-13 21:00",37.4121818290639,"Working","OW391"
"2023-05-13 22:00",37.4041826669859,"Working","OW391"
"2023-05-13 23:00",37.3961835049078,"Working","OW391"
"2023-05-14 00:00",37.3881843428298,"Working","OW391"
"2023-05-14 01:00",37.3801851807517,"Working","OW391"
"2023-05-14 02:00",37.3751860186737,"Working","OW391"
"2023-05-14 03:00",37.3711868565956,"Working","OW391"
"2023-05-14 04:00",37.3691876945176,"Working","OW391"
"2023-05-14 05:00",37.3681885324396,"Working","OW391"
"2023-05-14 06:00",37.3661893703615,"Working","OW391"
"2023-05-14 07:00",37.3641902082835,"Working","OW391"
"2023-05-14 08:00",37.3651910462054,"Working","OW391"
"2023-05-14 09:00",37.3681918841274,"Working","OW391"
"2023-05-14 10:00",37.3671927220493,"Working","OW391"
"2023-05-14 11:00",37.3671935599713,"Working","OW391"
"2023-05-14 12:00",37.3661943978932,"Working","OW391"
"2023-05-14 13:00",37.3621952358152,"Working","OW391"
"2023-05-14 14:00",37.3621960737371,"Working","OW391"
"2023-05-14 15:00",37.3621969116591,"Working","OW391"
"2023-05-14 16:00",37.358197749581,"Working","OW391"
"2023-05-14 17:00",37.354198587503,"Working","OW391"
"2023-05-14 18:00",37.3501994254249,"Working","OW391"
"2023-05-14 19:00",37.3422002633469,"Working","OW391"
"2023-05-14 20:00",37.3352011012689,"Working","OW391"
"2023-05-14 21:00",37.3282019391908,"Working","OW391"
"2023-05-14 22:00",37.3232027771128,"Working","OW391"
"2023-05-14 23:00",37.3172036150347,"Working","OW391"
"2023-05-15 00:00",37.3132044529567,"Working","OW391"
"2023-05-15 01:00",37.3102052908786,"Working","OW391"
"2023-05-15 02:00",37.3082061288006,"Working","OW391"
"2023-05-15 03:00",37.3082069667225,"Working","OW391"
"2023-05-15 04:00",37.3092078046445,"Working","OW391"
"2023-05-15 05:00",37.3132086425664,"Working","OW391"
"2023-05-15 06:00",37.3142094804884,"Working","OW391"
"2023-05-15 07:00",37.3172103184103,"Working","OW391"
"2023-05-15 08:00",37.3202111563323,"Working","OW391"
"2023-05-15 09:00",37.3272119942542,"Working","OW391"
"2023-05-15 10:00",37.3292128321762,"Working","OW391"
"2023-05-15 11:00",37.3302136700982,"Working","OW391"
"2023-05-15 12:00",37.3312145080201,"Working","OW391"
"2023-05-15 13:00",37.3342153459421,"Working","OW391"
"2023-05-15 14:00",37.335216183864,"Working","OW391"
"2023-05-15 15:00",37.337217021786,"Working","OW391"
"2023-05-15 16:00",37.3362178597079,"Working","OW391"
"2023-05-15 17:00",37.3342186976299,"Working","OW391"
"2023-05-15 18:00",37.3362195355518,"Working","OW391"
"2023-05-15 19:00",37.3342203734738,"Working","OW391"
"2023-05-15 20:00",37.3342212113957,"Working","OW391"
"2023-05-15 21:00",37.3322220493177,"Working","OW391"
"2023-05-15 22:00",37.3292228872396,"Working","OW391"
"2023-05-15 23:00",37.3262237251616,"Working","OW391"
"2023-05-16 00:00",37.3212245630836,"Working","OW391"
"2023-05-16 01:00",37.3202254010055,"Working","OW391"
"2023-05-16 02:00",37.3182262389275,"Working","OW391"
"2023-05-16 03:00",37.3202270768494,"Working","OW391"
"2023-05-16 04:00",37.3232279147714,"Working","OW391"
"2023-05-16 05:00",37.3292287526933,"Working","OW391"
"2023-05-16 06:00",37.3322295906153,"Working","OW391"
"2023-05-16 07:00",37.3402304285372,"Working","OW391"
"2023-05-16 08:00",37.3542312664592,"Working","OW391"
"2023-05-16 09:00",37.3642321043811,"Working","OW391"
"2023-05-16 10:00",37.3732329423031,"Working","OW391"
"2023-05-16 11:00",37.381233780225,"Working","OW391"
"2023-05-16 12:00",37.387234618147,"Working","OW391"
"2023-05-16 13:00",37.392235456069,"Working","OW391"
"2023-05-16 14:00",37.3972362939909,"Working","OW391"
"2023-05-16 15:00",37.4022371319129,"Working","OW391"
"2023-05-16 16:00",37.4072379698348,"Working","OW391"
"2023-05-16 17:00",37.4112388077568,"Working","OW391"
"2023-05-16 18:00",37.4102396456787,"Working","OW391"
"2023-05-16 19:00",37.4122404836007,"Working","OW391"
"2023-05-16 20:00",37.4082413215226,"Working","OW391"
"2023-05-16 21:00",37.4042421594446,"Working","OW391"
"2023-05-16 22:00",37.3992429973665,"Working","OW391"
"2023-05-16 23:00",37.3912438352885,"Working","OW391"
"2023-05-17 00:00",37.3842446732104,"Working","OW391"
"2023-05-17 01:00",37.3782455111324,"Working","OW391"
"2023-05-17 02:00",37.3742463490543,"Working","OW391"
"2023-05-17 03:00",37.3732471869763,"Working","OW391"
"2023-05-17 04:00",37.3742480248983,"Working","OW391"
"2023-05-17 05:00",37.3792488628202,"Working","OW391"
"2023-05-17 06:00",37.3832497007422,"Working","OW391"
"2023-05-17 07:00",37.3852505386641,"Working","OW391"
"2023-05-17 08:00",37.3822513765861,"Working","OW391"
"2023-05-17 09:00",37.382252214508,"Working","OW391"
"2023-05-17 10:00",37.38325305243,"Working","OW391"
"2023-05-17 11:00",37.3862538903519,"Working","OW391"
"2023-05-17 12:00",37.3852547282739,"Working","OW391"
"2023-05-17 13:00",37.3842555661958,"Working","OW391"
"2023-05-17 14:00",37.3852564041178,"Working","OW391"
"2023-05-17 15:00",37.3832572420397,"Working","OW391"
"2023-05-17 16:00",37.3802580799617,"Working","OW391"
"2023-05-17 17:00",37.3752589178836,"Working","OW391"
"2023-05-17 18:00",37.3722597558056,"Working","OW391"
"2023-05-17 19:00",37.3682605937276,"Working","OW391"
"2023-05-17 20:00",37.3612614316495,"Working","OW391"
"2023-05-17 21:00",37.3542622695715,"Working","OW391"
"2023-05-17 22:00",37.3492631074934,"Working","OW391"
"2023-05-17 23:00",37.3402639454154,"Working","OW391"
"2023-05-18 00:00",37.3342647833373,"Working","OW391"
"2023-05-18 01:00",37.3252656212593,"Working","OW391"
"2023-05-18 02:00",37.3212664591812,"Working","OW391"
"2023-05-18 03:00",37.3202672971032,"Working","OW391"
"2023-05-18 04:00",37.3222681350251,"Working","OW391"
"2023-05-18 05:00",37.3242689729471,"Working","OW391"
"2023-05-18 06:00",37.326269810869,"Working","OW391"
"2023-05-18 07:00",37.330270648791,"Working","OW391"
"2023-05-18 08:00",37.332271486713,"Working","OW391"
"2023-05-18 09:00",37.3352723246349,"Working","OW391"
"2023-05-18 10:00",37.3382731625569,"Working","OW391"
"2023-05-18 11:00",37.3402740004788,"Working","OW391"
"2023-05-18 12:00",37.3442748384008,"Working","OW391"
"2023-05-18 13:00",37.3452756763227,"Working","OW391"
"2023-05-18 14:00",37.3492765142447,"Working","OW391"
"2023-05-18 15:00",37.3552773521666,"Working","OW391"
"2023-05-18 16:00",37.3582781900886,"Working","OW391"
"2023-05-18 17:00",37.3622790280105,"Working","OW391"
"2023-05-18 18:00",37.3642798659325,"Working","OW391"
"2023-05-18 19:00",37.3662807038544,"Working","OW391"
"2023-05-18 20:00",37.3672815417764,"Working","OW391"
"2023-05-18 21:00",37.3732823796983,"Working","OW391"
"2023-05-18 22:00",37.3732832176203,"Working","OW391"
"2023-05-18 23:00",37.3772840555423,"Working","OW391"
"2023-05-19 00:00",37.3792848934642,"Working","OW391"
"2023-05-19 01:00",37.3792857313862,"Working","OW391"
"2023-05-19 02:00",37.3812865693081,"Working","OW391"
"2023-05-19 03:00",37.3872874072301,"Working","OW391"
"2023-05-19 04:00",37.392288245152,"Working","OW391"
"2023-05-19 05:00",37.401289083074,"Working","OW391"
"2023-05-19 06:00",37.4052899209959,"Working","OW391"
"2023-05-19 07:00",37.4132907589179,"Working","OW391"
"2023-05-19 08:00",37.4232915968398,"Working","OW391"
"2023-05-19 09:00",37.4272924347618,"Working","OW391"
"2023-05-19 10:00",37.4322932726837,"Working","OW391"
"2023-05-19 11:00",37.4362941106057,"Working","OW391"
"2023-05-19 12:00",37.4402949485277,"Working","OW391"
"2023-05-19 13:00",37.4452957864496,"Working","OW391"
"2023-05-19 14:00",37.4512966243716,"Working","OW391"
"2023-05-19 15:00",37.4562974622935,"Working","OW391"
"2023-05-19 16:00",37.4582983002155,"Working","OW391"
"2023-05-19 17:00",37.4572991381374,"Working","OW391"
"2023-05-19 18:00",37.4562999760594,"Working","OW391"
"2023-05-19 19:00",37.4523008139813,"Working","OW391"
"2023-05-19 20:00",37.4493016519033,"Working","OW391"
"2023-05-19 21:00",37.4433024898252,"Working","OW391"
"2023-05-19 22:00",37.4413033277472,"Working","OW391"
"2023-05-19 23:00",37.4343041656691,"Working","OW391"
"2023-05-20 00:00",37.4263050035911,"Working","OW391"
"2023-05-20 01:00",37.420305841513,"Working","OW391"
"2023-05-20 02:00",37.412306679435,"Working","OW391"
"2023-05-20 03:00",37.4073075173569,"Working","OW391"
"2023-05-20 04:00",37.4093083552789,"Working","OW391"
"2023-05-20 05:00",37.4103091932009,"Working","OW391"
"2023-05-20 06:00",37.4113100311228,"Working","OW391"
"2023-05-20 07:00",37.4173108690448,"Working","OW391"
"2023-05-20 08:00",37.4213117069667,"Working","OW391"
"2023-05-20 09:00",37.4233125448887,"Working","OW391"
"2023-05-20 10:00",37.4253133828106,"Working","OW391"
"2023-05-20 11:00",37.4233142207326,"Working","OW391"
"2023-05-20 12:00",37.4263150586545,"Working","OW391"
"2023-05-20 13:00",37.4293158965765,"Working","OW391"
"2023-05-20 14:00",37.4323167344984,"Working","OW391"
"2023-05-20 15:00",37.4353175724204,"Working","OW391"
"2023-05-20 16:00",37.4353184103424,"Working","OW391"
"2023-05-20 17:00",37.4343192482643,"Working","OW391"
"2023-05-20 18:00",37.4323200861863,"Working","OW391"
"2023-05-20 19:00",37.4293209241082,"Working","OW391"
"2023-05-20 20:00",37.4243217620302,"Working","OW391"
"2023-05-20 21:00",37.4213225999521,"Working","OW391"
"2023-05-20 22:00",37.4143234378741,"Working","OW391"
"2023-05-20 23:00",37.407324275796,"Working","OW391"
"2023-05-21 00:00",37.400325113718,"Working","OW391"
"2023-05-21 01:00",37.3923259516399,"Working","OW391"
"2023-05-21 02:00",37.3913267895619,"Working","OW391"
"2023-05-21 03:00",37.3943276274838,"Working","OW391"
"2023-05-21 04:00",37.3943284654058,"Working","OW391"
"2023-05-21 05:00",37.4003293033277,"Working","OW391"
"2023-05-21 06:00",37.4053301412497,"Working","OW391"
"2023-05-21 07:00",37.4093309791717,"Working","OW391"
"2023-05-21 08:00",37.4143318170936,"Working","OW391"
"2023-05-21 09:00",37.4173326550156,"Working","OW391"
"2023-05-21 10:00",37.4163334929375,"Working","OW391"
"2023-05-21 11:00",37.4173343308595,"Working","OW391"
"2023-05-21 12:00",37.4173351687814,"Working","OW391"
"2023-05-21 13:00",37.4183360067034,"Working","OW391"
"2023-05-21 14:00",37.4233368446253,"Working","OW391"
"2023-05-21 15:00",37.4283376825473,"Working","OW391"
"2023-05-21 16:00",37.4313385204692,"Working","OW391"
"2023-05-21 17:00",37.4333393583912,"Working","OW391"
"2023-05-21 18:00",37.4313401963131,"Working","OW391"
"2023-05-21 19:00",37.4273410342351,"Working","OW391"
"2023-05-21 20:00",37.4263418721571,"Working","OW391"
"2023-05-21 21:00",37.424342710079,"Working","OW391"
"2023-05-21 22:00",37.424343548001,"Working","OW391"
"2023-05-21 23:00",37.4223443859229,"Working","OW391"
"2023-05-22 00:00",37.4173452238449,"Working","OW391"
"2023-05-22 01:00",37.4153460617668,"Working","OW391"
"2023-05-22 02:00",37.4163468996888,"Working","OW391"
"2023-05-22 03:00",37.4193477376107,"Working","OW391"
"2023-05-22 04:00",37.4213485755327,"Working","OW391"
"2023-05-22 05:00",37.4243494134546,"Working","OW391"
"2023-05-22 06:00",37.4243502513766,"Working","OW391"
"2023-05-22 07:00",37.4233510892985,"Working","OW391"
"2023-05-22 08:00",37.4253519272205,"Working","OW391"
"2023-05-22 09:00",37.4253527651424,"Working","OW391"
"2023-05-22 10:00",37.4263536030644,"Working","OW391"
"2023-05-22 11:00",37.4273544409864,"Working","OW391"
"2023-05-22 12:00",37.4253552789083,"Working","OW391"
"2023-05-22 13:00",37.4263561168303,"Working","OW391"
"2023-05-22 14:00",37.4263569547522,"Working","OW391"
"2023-05-22 15:00",37.4253577926742,"Working","OW391"
"2023-05-22 16:00",37.4233586305961,"Working","OW391"
"2023-05-22 17:00",37.4203594685181,"Working","OW391"
"2023-05-22 18:00",37.41836030644,"Working","OW391"
"2023-05-22 19:00",37.418361144362,"Working","OW391"
"2023-05-22 20:00",37.4203619822839,"Working","OW391"
"2023-05-22 21:00",37.4173628202059,"Working","OW391"
"2023-05-22 22:00",37.4173636581278,"Working","OW391"
"2023-05-22 23:00",37.4173644960498,"Working","OW391"
"2023-05-23 00:00",37.4153653339717,"Working","OW391"
"2023-05-23 01:00",37.4163661718937,"Working","OW391"
"2023-05-23 02:00",37.4183670098157,"Working","OW391"
"2023-05-23 03:00",37.4193678477376,"Working","OW391"
"2023-05-23 04:00",37.4203686856596,"Working","OW391"
"2023-05-23 05:00",37.4243695235815,"Working","OW391"
"2023-05-23 06:00",37.4283703615035,"Working","OW391"
"2023-05-23 07:00",37.4303711994254,"Working","OW391"
"2023-05-23 08:00",37.4243720373474,"Working","OW391"
"2023-05-23 09:00",37.4243728752693,"Working","OW391"
"2023-05-23 10:00",37.4243737131913,"Working","OW391"
"2023-05-23 11:00",37.4233745511132,"Working","OW391"
"2023-05-23 12:00",37.4243753890352,"Working","OW391"
"2023-05-23 13:00",37.4233762269571,"Working","OW391"
"2023-05-23 14:00",37.4213770648791,"Working","OW391"
"2023-05-23 15:00",37.4183779028011,"Working","OW391"
"2023-05-23 16:00",37.419378740723,"Working","OW391"
"2023-05-23 17:00",37.416379578645,"Working","OW391"
"2023-05-23 18:00",37.4123804165669,"Working","OW391"
"2023-05-23 19:00",37.4123812544889,"Working","OW391"
"2023-05-23 20:00",37.4073820924108,"Working","OW391"
"2023-05-23 21:00",37.4083829303328,"Working","OW391"
"2023-05-23 22:00",37.4063837682547,"Working","OW391"
"2023-05-23 23:00",37.4013846061767,"Working","OW391"
"2023-05-24 00:00",37.3983854440986,"Working","OW391"
"2023-05-24 01:00",37.3983862820206,"Working","OW391"
"2023-05-24 02:00",37.3973871199425,"Working","OW391"
"2023-05-24 03:00",37.3983879578645,"Working","OW391"